#timestamp,LO_Frequency,Hit,StdDev 
1599548415.1,286047019.2,N
1599548435.9,286047018.8,N
1599548455.7,286047015.2,N
1599548475.5,286047013.4,N
1599548495.4,286047016.9,N
1599548515.2,286047018.9,N
1599548535.0,286047018.6,N
1599548536.0,286047018.6,N
1599548555.8,286047017.2,N
1599548575.6,286047012.9,N
1599548595.5,286047011.7,N
1599548615.3,286047009.8,N
1599548635.1,286047010.8,N
1599548655.9,286047006.7,N
1599548675.7,286047007.1,N
1599548695.6,286047005.2,N
1599548715.4,286047005.4,N
1599548735.2,286047003.1,N
1599548755.1,286047004.4,N
1599548756.0,286047004.4,N
1599548775.8,286047001.4,N
1599548795.6,286047002.5,N
1599548815.5,286047001.4,N
1599548835.3,286047001.7,N
1599548855.2,286047002.0,N
1599548875.9,286047002.5,N
1599548895.7,286047002.1,N
1599548915.6,286047001.8,N
1599548935.4,286047000.3,N
1599548955.2,286047000.4,N
1599548975.1,286047000.3,N
1599548976.0,286047000.3,N
1599548995.8,286047000.2,N
1599549015.7,286047000.0,N
1599549035.5,286047002.8,N
1599549055.3,286047002.1,N
1599549075.2,286047003.6,N
1599549095.0,286046999.8,N
1599549095.9,286046999.8,N
1599549115.7,286047001.7,N
1599549135.6,286047000.2,N
1599549155.4,286047000.9,N
1599549175.3,286047001.2,N
1599549195.1,286047000.3,N
1599549196.0,286047000.3,N
1599549215.8,286047001.1,N
1599549235.7,286047000.3,N
1599549255.5,286047000.9,N
1599549275.4,286046999.7,N
1599549295.2,286047001.8,N
1599549315.0,286047004.3,Y
1599549315.9,286047004.3,P
1599549335.8,286046999.8,N
1599549355.6,286047001.2,N
1599549375.4,286046998.5,N
1599549395.3,286046998.2,N
1599549415.1,286047000.8,N
1599549435.9,286047000.0,N
1599549455.7,286047000.8,N
1599549475.5,286046998.8,N
1599549495.4,286046998.4,N
1599549515.2,286046998.9,N
1599549535.0,286046998.1,N
1599549535.9,286046998.1,N
1599549555.8,286046998.8,N
1599549575.6,286046999.4,N
1599549595.5,286046998.6,N
1599549615.3,286046998.6,N
1599549635.1,286046998.4,N
1599549655.9,286046998.5,N
1599549675.7,286047007.4,Y
1599549695.6,286047004.9,P
1599549715.4,286047004.5,N
1599549735.2,286047003.0,N
1599549755.1,286047003.5,N
1599549756.0,286047003.5,N
1599549775.8,286047004.4,N
1599549795.7,286047001.8,N
1599549815.5,286047002.3,N
1599549835.3,286047000.1,N
1599549855.2,286047000.5,N
1599549875.9,286047001.2,N
1599549895.7,286047000.0,N
1599549915.6,286046998.4,N
1599549935.4,286046998.7,N
1599549955.2,286046998.1,N
1599549975.1,286046998.4,N
1599549976.0,286046998.4,N
1599549995.8,286046998.9,N
1599550015.7,286046998.1,N
1599550035.5,286047001.2,N
1599550055.3,286046999.4,N
1599550075.2,286046998.4,N
1599550095.0,286046998.5,N
1599550095.9,286046998.5,N
1599550115.8,286046998.7,N
1599550135.6,286047000.7,N
1599550155.4,286046999.1,N
1599550175.3,286046999.4,N
1599550195.1,286046996.5,N
1599550215.9,286046999.3,N
1599550235.7,286046996.8,N
1599550255.5,286046997.9,N
1599550275.4,286046999.4,N
1599550295.2,286046997.2,N
1599550315.1,286046997.6,N
1599550316.0,286046997.6,N
1599550335.8,286046997.3,N
1599550355.6,286046999.6,N
1599550375.5,286046999.0,N
1599550395.3,286046999.2,N
1599550415.1,286046996.7,N
1599550435.9,286046997.3,N
1599550455.7,286046996.5,Y
1599550475.6,286046999.3,P
1599550495.4,286047000.7,N
1599550515.2,286046998.4,N
1599550535.1,286046998.5,N
1599550536.0,286046998.5,N
1599550555.8,286046998.6,N
1599550575.7,286047000.8,N
1599550595.5,286046999.5,N
1599550615.3,286046998.9,N
1599550635.2,286046998.9,N
1599550655.0,286047011.9,Y
1599550655.9,286046999.2,P
1599550675.8,286047001.0,P
1599550725.6,286047000.2,E
1599550735.5,286047000.4,N
1599550755.4,286046998.9,P
1599550775.2,286047001.2,N
1599550795.1,286046999.1,N
1599550796.0,286046999.1,N
1599550815.8,286046998.6,N
1599550835.6,286047000.6,N
1599550855.5,286047000.4,N
1599550875.3,286046998.2,N
1599550895.1,286046998.1,N
1599550915.9,286047000.0,N
1599550935.7,286047000.8,N
1599550955.6,286046998.5,N
1599550975.4,286047001.1,N
1599550995.2,286047000.8,N
1599551015.1,286046998.2,N
1599551016.0,286046998.2,N
1599551035.8,286047000.1,N
1599551055.7,286047000.2,N
1599551075.5,286047002.7,N
1599551095.3,286047002.8,N
1599551115.2,286047002.7,N
1599551135.0,286047002.8,N
1599551135.9,286047002.8,N
1599551155.8,286047002.4,N
1599551175.6,286047000.7,N
1599551195.4,286047000.0,N
1599551215.3,286047000.6,N
1599551235.1,286047002.8,N
1599551255.8,286047000.1,N
1599551275.7,286047000.1,N
1599551295.5,286047000.2,N
1599551315.4,286047000.4,N
1599551335.2,286047011.9,Y
1599551355.0,286047000.6,P
1599551355.9,286047000.6,P
1599551375.8,286046999.3,P
1599551395.6,286047001.1,N
1599551415.5,286047000.9,N
1599551435.3,286046998.9,N
1599551455.1,286047001.1,N
1599551475.9,286046999.4,N
1599551495.7,286046997.0,Y
1599551515.5,286046997.8,P
1599551535.4,286046998.9,N
1599551555.2,286046998.6,N
1599551575.1,286046998.8,N
1599551576.0,286046998.8,N
1599551595.8,286046999.5,N
1599551615.6,286046996.6,Y
1599551635.5,286046999.0,P
1599551655.3,286046999.1,P
1599551675.1,286046996.5,P
1599551695.9,286046999.6,N
1599551715.7,286047011.9,Y
1599551735.6,286047000.3,P
1599551755.4,286047000.7,N
1599551775.2,286047000.3,N
1599551795.1,286046998.2,N
1599551796.0,286046998.2,N
1599551815.8,286047000.9,N
1599551835.6,286046998.7,N
1599551855.5,286046998.2,N
1599551875.3,286047000.4,N
1599551895.2,286047001.1,N
1599551915.9,286046999.0,N
1599551935.7,286047001.1,N
1599551955.6,286046996.8,N
1599551975.4,286046996.8,N
1599551995.2,286046999.3,N
